Starlink 11572

operational
NORAD ID: 62990 Int'l Des: 2025-031 Owner: SPXS Country: US Constellation: starlink
LEOCIRCULAR

Über Starlink 11572

Beschreibung wird geladen...

Live-Position

3D-Globus wird geladen...

Nächste Überflüge

Höhenverlauf

Altitude vs Time

uPlot chart will show altitude changes over time

Zweizeiliger Elementsatz

1 62990U 25031K 26035.49428490 .00266754 00000-0 20103-2 0 9991
2 62990 42.9990 201.3675 0001649 256.2113 103.8572 15.70911204 57520
Epoch: 4. Feb. 2026 • Age: 7 hours

Aktueller Status

Höhe 367.8 km
Geschwindigkeit 7.69 km/s
Subsatellitenpunkt -42.56°S, 36.75°E
Startdatum 11. Feb. 2025
Alter 0.9 years
Typ internet

Technische Details

Klassifizierung Payload
Masse 960.00 kg
Trockenmasse 910.00 kg
Gesamtmasse 960.00 kg
Länge 0.30 m
Durchmesser 4.10 m
Spannweite 29.00 m
Form Box + pan
Hersteller SPXS
Bus-Typ Starlink V2MD
Phasenstatus In Orbit
Besitzer/Staat SPXS/US

Große Konstellationen

Loading constellations...